PRIVATE WETTERSTATION BILLIGHEIM-ALLFELD                       ZURCK
Wetterdaten: Freitag, 04.03.2016
Datum Zeit Temp. A. Temp. A. min Temp. A. max Feuchte A. Luftdruck Regen Wind Richtung Richtung Sonnenschein ET Solar Taupunkt Windchill Windben Empfang
04.03.2016 00:00 1,4 C 1,4 C 1,5 C 92 % 1007,6 hPa 0,0 l/m 0,0 km/h (0 Bft) W-NW 292 0 min 0,000 mm 0 W/m 0,2 C 1,4 C 1,6 km/h (1 Bft) 97 %
04.03.2016 00:10 1,6 C 1,4 C 1,6 C 92 % 1007,5 hPa 0,0 l/m 0,0 km/h (0 Bft) W-NW 292 0 min 0,000 mm 0 W/m 0,4 C 1,6 C 1,6 km/h (1 Bft) 97 %
04.03.2016 00:20 1,7 C 1,6 C 1,7 C 92 % 1007,3 hPa 0,0 l/m 0,0 km/h (0 Bft) W-NW 292 0 min 0,000 mm 0 W/m 0,5 C 1,7 C 1,6 km/h (1 Bft) 98 %
04.03.2016 00:30 1,8 C 1,7 C 1,8 C 92 % 1007,2 hPa 0,0 l/m 0,0 km/h (0 Bft) W-NW 292 0 min 0,000 mm 0 W/m 0,6 C 1,8 C 1,6 km/h (1 Bft) 97 %
04.03.2016 00:40 1,8 C 1,8 C 1,8 C 92 % 1007,4 hPa 0,0 l/m 0,0 km/h (0 Bft) W-NW 292 0 min 0,000 mm 0 W/m 0,6 C 1,8 C 3,2 km/h (1 Bft) 97 %
04.03.2016 00:50 1,7 C 1,7 C 1,8 C 92 % 1007,3 hPa 0,0 l/m 0,0 km/h (0 Bft) W-NW 292 0 min 0,000 mm 0 W/m 0,5 C 1,7 C 1,6 km/h (1 Bft) 97 %
04.03.2016 01:00 1,8 C 1,7 C 1,8 C 92 % 1007,3 hPa 0,0 l/m 0,0 km/h (0 Bft) W-NW 292 0 min 0,000 mm 0 W/m 0,6 C 1,8 C 3,2 km/h (1 Bft) 98 %
04.03.2016 01:10 1,9 C 1,8 C 1,9 C 92 % 1007,4 hPa 0,0 l/m 0,0 km/h (0 Bft) W-NW 292 0 min 0,000 mm 0 W/m 0,7 C 1,9 C 3,2 km/h (1 Bft) 97 %
04.03.2016 01:20 1,8 C 1,8 C 1,9 C 92 % 1007,6 hPa 0,0 l/m 0,0 km/h (0 Bft) W-NW 292 0 min 0,000 mm 0 W/m 0,6 C 1,8 C 1,6 km/h (1 Bft) 98 %
04.03.2016 01:30 1,8 C 1,8 C 1,9 C 92 % 1007,7 hPa 0,0 l/m 1,6 km/h (1 Bft) W-NW 292 0 min 0,000 mm 0 W/m 0,6 C 1,8 C 3,2 km/h (1 Bft) 98 %
04.03.2016 01:40 1,8 C 1,8 C 1,8 C 92 % 1007,7 hPa 0,0 l/m 0,0 km/h (0 Bft) W-NW 292 0 min 0,000 mm 0 W/m 0,6 C 1,8 C 3,2 km/h (1 Bft) 97 %
04.03.2016 01:50 1,8 C 1,8 C 1,8 C 92 % 1007,7 hPa 0,0 l/m 0,0 km/h (0 Bft) W-NW 292 0 min 0,000 mm 0 W/m 0,6 C 1,8 C 3,2 km/h (1 Bft) 98 %
04.03.2016 02:00 1,8 C 1,8 C 1,9 C 92 % 1007,7 hPa 0,0 l/m 0,0 km/h (0 Bft) W-NW 292 0 min 0,000 mm 0 W/m 0,6 C 1,8 C 1,6 km/h (1 Bft) 97 %
04.03.2016 02:10 1,9 C 1,8 C 1,9 C 92 % 1007,8 hPa 0,0 l/m 0,0 km/h (0 Bft) W-NW 292 0 min 0,000 mm 0 W/m 0,7 C 1,9 C 4,8 km/h (1 Bft) 98 %
04.03.2016 02:20 1,9 C 1,9 C 1,9 C 92 % 1007,8 hPa 0,0 l/m 0,0 km/h (0 Bft) W-NW 292 0 min 0,000 mm 0 W/m 0,7 C 1,9 C 1,6 km/h (1 Bft) 97 %
04.03.2016 02:30 1,9 C 1,9 C 1,9 C 92 % 1007,7 hPa 0,0 l/m 3,2 km/h (1 Bft) SW 225 0 min 0,000 mm 0 W/m 0,7 C 1,9 C 6,4 km/h (2 Bft) 97 %
04.03.2016 02:40 1,8 C 1,8 C 1,9 C 92 % 1007,6 hPa 0,0 l/m 3,2 km/h (1 Bft) SW 225 0 min 0,000 mm 0 W/m 0,6 C 1,8 C 8,0 km/h (2 Bft) 98 %
04.03.2016 02:50 1,8 C 1,8 C 1,8 C 92 % 1007,6 hPa 0,0 l/m 4,8 km/h (1 Bft) SW 225 0 min 0,000 mm 0 W/m 0,6 C 1,8 C 9,7 km/h (2 Bft) 98 %
04.03.2016 03:00 1,8 C 1,7 C 1,8 C 92 % 1007,6 hPa 0,0 l/m 4,8 km/h (1 Bft) SW 225 0 min 0,000 mm 0 W/m 0,6 C 1,8 C 14,5 km/h (3 Bft) 98 %
04.03.2016 03:10 1,7 C 1,7 C 1,8 C 92 % 1007,6 hPa 0,0 l/m 4,8 km/h (1 Bft) SW 225 0 min 0,000 mm 0 W/m 0,5 C 1,7 C 9,7 km/h (2 Bft) 97 %
04.03.2016 03:20 1,7 C 1,7 C 1,8 C 92 % 1007,5 hPa 0,0 l/m 3,2 km/h (1 Bft) SW 225 0 min 0,000 mm 0 W/m 0,5 C 1,7 C 8,0 km/h (2 Bft) 98 %
04.03.2016 03:30 1,7 C 1,7 C 1,7 C 92 % 1007,4 hPa 0,0 l/m 1,6 km/h (1 Bft) W-SW 247 0 min 0,000 mm 0 W/m 0,5 C 1,7 C 4,8 km/h (1 Bft) 97 %
04.03.2016 03:40 1,7 C 1,7 C 1,7 C 92 % 1007,3 hPa 0,0 l/m 3,2 km/h (1 Bft) SW 225 0 min 0,000 mm 0 W/m 0,5 C 1,7 C 8,0 km/h (2 Bft) 98 %
04.03.2016 03:50 1,6 C 1,6 C 1,7 C 92 % 1007,1 hPa 0,0 l/m 0,0 km/h (0 Bft) SW 225 0 min 0,000 mm 0 W/m 0,4 C 1,6 C 3,2 km/h (1 Bft) 98 %
04.03.2016 04:00 1,6 C 1,6 C 1,6 C 92 % 1007,0 hPa 0,0 l/m 0,0 km/h (0 Bft) N 0 0 min 0,000 mm 0 W/m 0,4 C 1,6 C 0,0 km/h (0 Bft) 97 %
04.03.2016 04:10 1,5 C 1,5 C 1,6 C 92 % 1007,2 hPa 0,0 l/m 1,6 km/h (1 Bft) SW 225 0 min 0,000 mm 0 W/m 0,3 C 1,5 C 4,8 km/h (1 Bft) 98 %
04.03.2016 04:20 1,6 C 1,5 C 1,6 C 92 % 1007,2 hPa 0,0 l/m 4,8 km/h (1 Bft) S-SW 202 0 min 0,000 mm 0 W/m 0,4 C 1,6 C 12,9 km/h (3 Bft) 89 %
04.03.2016 04:30 1,5 C 1,5 C 1,6 C 92 % 1007,1 hPa 0,0 l/m 8,0 km/h (2 Bft) S-SW 202 0 min 0,000 mm 0 W/m 0,3 C -0,1 C 14,5 km/h (3 Bft) 98 %
04.03.2016 04:40 1,4 C 1,4 C 1,6 C 92 % 1007,1 hPa 0,0 l/m 8,0 km/h (2 Bft) S-SW 202 0 min 0,000 mm 0 W/m 0,2 C -0,2 C 16,1 km/h (3 Bft) 97 %
04.03.2016 04:50 1,4 C 1,4 C 1,4 C 92 % 1007,0 hPa 0,0 l/m 4,8 km/h (1 Bft) SW 225 0 min 0,000 mm 0 W/m 0,2 C 1,4 C 16,1 km/h (3 Bft) 98 %
04.03.2016 05:00 1,4 C 1,4 C 1,4 C 92 % 1006,8 hPa 0,0 l/m 1,6 km/h (1 Bft) SW 225 0 min 0,000 mm 0 W/m 0,2 C 1,4 C 11,3 km/h (2 Bft) 98 %
04.03.2016 05:10 1,3 C 1,3 C 1,4 C 92 % 1006,8 hPa 0,0 l/m 1,6 km/h (1 Bft) SW 225 0 min 0,000 mm 0 W/m 0,1 C 1,3 C 6,4 km/h (2 Bft) 98 %
04.03.2016 05:20 1,3 C 1,3 C 1,3 C 92 % 1006,8 hPa 0,0 l/m 1,6 km/h (1 Bft) S-SW 202 0 min 0,000 mm 0 W/m 0,1 C 1,3 C 8,0 km/h (2 Bft) 98 %
04.03.2016 05:30 1,2 C 1,2 C 1,3 C 92 % 1006,7 hPa 0,0 l/m 3,2 km/h (1 Bft) S-SW 202 0 min 0,000 mm 0 W/m 0,0 C 1,2 C 8,0 km/h (2 Bft) 97 %
04.03.2016 05:40 1,0 C 1,0 C 1,3 C 98 % 1006,5 hPa 0,0 l/m 0,0 km/h (0 Bft) N 0 0 min 0,000 mm 0 W/m 0,7 C 1,0 C 0,0 km/h (0 Bft) 98 %
04.03.2016 05:50 0,8 C 0,8 C 1,0 C 92 % 1006,2 hPa 0,0 l/m 0,0 km/h (0 Bft) N 0 0 min 0,000 mm 0 W/m -0,3 C 0,8 C 0,0 km/h (0 Bft) 98 %
04.03.2016 06:00 0,6 C 0,6 C 0,8 C 92 % 1006,2 hPa 0,0 l/m 0,0 km/h (0 Bft) S-SW 202 0 min 0,000 mm 0 W/m -0,5 C 0,6 C 1,6 km/h (1 Bft) 98 %
04.03.2016 06:10 0,4 C 0,4 C 0,6 C 92 % 1006,0 hPa 0,0 l/m 0,0 km/h (0 Bft) N 0 0 min 0,000 mm 0 W/m -0,7 C 0,4 C 0,0 km/h (0 Bft) 98 %
04.03.2016 06:20 0,3 C 0,3 C 0,4 C 92 % 1005,8 hPa 0,0 l/m 1,6 km/h (1 Bft) S-SW 202 0 min 0,000 mm 0 W/m -0,8 C 0,3 C 4,8 km/h (1 Bft) 98 %
04.03.2016 06:30 0,3 C 0,3 C 0,3 C 92 % 1005,7 hPa 0,0 l/m 3,2 km/h (1 Bft) S-SW 202 0 min 0,000 mm 0 W/m -0,8 C 0,3 C 4,8 km/h (1 Bft) 98 %
04.03.2016 06:40 0,3 C 0,3 C 0,3 C 92 % 1005,5 hPa 0,0 l/m 1,6 km/h (1 Bft) S-SO 157 0 min 0,000 mm 0 W/m -0,8 C 0,3 C 4,8 km/h (1 Bft) 96 %
04.03.2016 06:50 0,3 C 0,3 C 0,3 C 92 % 1005,5 hPa 0,0 l/m 0,0 km/h (0 Bft) N 0 0 min 0,000 mm 0 W/m -0,8 C 0,3 C 0,0 km/h (0 Bft) 97 %
04.03.2016 07:00 0,2 C 0,2 C 0,3 C 92 % 1005,3 hPa 0,0 l/m 0,0 km/h (0 Bft) N 0 0 min 0,000 mm 0 W/m -0,9 C 0,2 C 0,0 km/h (0 Bft) 96 %
04.03.2016 07:10 0,1 C 0,1 C 0,2 C 92 % 1005,2 hPa 0,0 l/m 0,0 km/h (0 Bft) S-SO 157 0 min 0,000 mm 9 W/m -1,0 C 0,1 C 3,2 km/h (1 Bft) 93 %
04.03.2016 07:20 0,1 C 0,1 C 0,1 C 92 % 1005,2 hPa 0,0 l/m 0,0 km/h (0 Bft) SO 135 0 min 0,000 mm 14 W/m -1,0 C 0,1 C 6,4 km/h (2 Bft) 94 %
04.03.2016 07:30 0,0 C 0,0 C 0,1 C 92 % 1005,0 hPa 0,0 l/m 0,0 km/h (0 Bft) SO 135 0 min 0,000 mm 16 W/m -1,1 C 0,0 C 1,6 km/h (1 Bft) 97 %
04.03.2016 07:40 -0,1 C -0,1 C 0,0 C 92 % 1004,9 hPa 0,0 l/m 0,0 km/h (0 Bft) N 0 0 min 0,000 mm 23 W/m -1,2 C -0,1 C 0,0 km/h (0 Bft) 97 %
04.03.2016 07:50 -0,4 C -0,4 C -0,1 C 92 % 1004,8 hPa 0,0 l/m 0,0 km/h (0 Bft) SO 135 0 min 0,000 mm 26 W/m -1,5 C -0,4 C 4,8 km/h (1 Bft) 97 %
04.03.2016 08:00 -0,2 C -0,4 C -0,2 C 92 % 1004,6 hPa 0,0 l/m 1,6 km/h (1 Bft) SO 135 0 min 0,000 mm 35 W/m -1,3 C -0,2 C 8,0 km/h (2 Bft) 98 %
04.03.2016 08:10 0,1 C -0,2 C 0,1 C 92 % 1004,5 hPa 0,0 l/m 1,6 km/h (1 Bft) SO 135 0 min 0,000 mm 47 W/m -1,0 C 0,1 C 6,4 km/h (2 Bft) 98 %
04.03.2016 08:20 0,4 C 0,1 C 0,4 C 92 % 1004,3 hPa 0,0 l/m 3,2 km/h (1 Bft) SO 135 0 min 0,000 mm 123 W/m -0,7 C 0,4 C 9,7 km/h (2 Bft) 97 %
04.03.2016 08:30 0,8 C 0,4 C 0,8 C 92 % 1004,1 hPa 0,0 l/m 3,2 km/h (1 Bft) SO 135 10 min 0,000 mm 174 W/m -0,3 C 0,8 C 14,5 km/h (3 Bft) 94 %
04.03.2016 08:40 1,2 C 0,8 C 1,2 C 92 % 1004,0 hPa 0,0 l/m 3,2 km/h (1 Bft) O-SO 112 10 min 0,000 mm 195 W/m 0,0 C 1,2 C 12,9 km/h (3 Bft) 97 %
04.03.2016 08:50 1,4 C 1,2 C 1,4 C 92 % 1003,8 hPa 0,0 l/m 3,2 km/h (1 Bft) SO 135 10 min 0,000 mm 192 W/m 0,2 C 1,4 C 11,3 km/h (2 Bft) 97 %
04.03.2016 09:00 1,5 C 1,4 C 1,5 C 92 % 1003,8 hPa 0,0 l/m 6,4 km/h (2 Bft) SO 135 10 min 0,051 mm 199 W/m 0,3 C 1,5 C 16,1 km/h (3 Bft) 97 %
04.03.2016 09:10 1,7 C 1,5 C 1,8 C 92 % 1003,4 hPa 0,0 l/m 6,4 km/h (2 Bft) SO 135 10 min 0,000 mm 200 W/m 0,5 C 1,7 C 17,7 km/h (3 Bft) 97 %
04.03.2016 09:20 2,1 C 1,7 C 2,1 C 91 % 1003,4 hPa 0,0 l/m 3,2 km/h (1 Bft) SO 135 10 min 0,000 mm 264 W/m 0,8 C 2,1 C 11,3 km/h (2 Bft) 97 %
04.03.2016 09:30 2,4 C 2,1 C 2,4 C 91 % 1003,5 hPa 0,0 l/m 3,2 km/h (1 Bft) O-SO 112 10 min 0,000 mm 276 W/m 1,1 C 2,4 C 8,0 km/h (2 Bft) 98 %
04.03.2016 09:40 2,6 C 2,4 C 2,6 C 90 % 1003,2 hPa 0,0 l/m 3,2 km/h (1 Bft) SO 135 10 min 0,000 mm 269 W/m 1,1 C 2,6 C 14,5 km/h (3 Bft) 97 %
04.03.2016 09:50 2,8 C 2,6 C 2,8 C 88 % 1002,9 hPa 0,0 l/m 4,8 km/h (1 Bft) SO 135 10 min 0,000 mm 255 W/m 1,0 C 2,8 C 16,1 km/h (3 Bft) 98 %
04.03.2016 10:00 2,9 C 2,8 C 2,9 C 88 % 1002,7 hPa 0,0 l/m 6,4 km/h (2 Bft) O-SO 112 10 min 0,076 mm 251 W/m 1,1 C 2,9 C 19,3 km/h (3 Bft) 97 %
04.03.2016 10:10 3,1 C 2,9 C 3,1 C 86 % 1002,3 hPa 0,0 l/m 4,8 km/h (1 Bft) SO 135 10 min 0,000 mm 248 W/m 1,0 C 3,1 C 16,1 km/h (3 Bft) 97 %
04.03.2016 10:20 3,2 C 3,1 C 3,2 C 85 % 1002,1 hPa 0,0 l/m 8,0 km/h (2 Bft) SO 135 10 min 0,000 mm 276 W/m 0,9 C 1,7 C 17,7 km/h (3 Bft) 98 %
04.03.2016 10:30 3,4 C 3,2 C 3,4 C 85 % 1002,1 hPa 0,0 l/m 6,4 km/h (2 Bft) O-SO 112 10 min 0,000 mm 288 W/m 1,1 C 3,4 C 19,3 km/h (3 Bft) 97 %
04.03.2016 10:40 3,7 C 3,4 C 3,7 C 83 % 1001,8 hPa 0,0 l/m 9,7 km/h (2 Bft) O-SO 112 10 min 0,000 mm 302 W/m 1,1 C 0,9 C 20,9 km/h (4 Bft) 98 %
04.03.2016 10:50 4,0 C 3,7 C 4,0 C 82 % 1001,5 hPa 0,0 l/m 6,4 km/h (2 Bft) SO 135 10 min 0,000 mm 322 W/m 1,2 C 4,0 C 20,9 km/h (4 Bft) 98 %
04.03.2016 11:00 4,2 C 4,0 C 4,2 C 81 % 1001,5 hPa 0,0 l/m 4,8 km/h (1 Bft) O-SO 112 10 min 0,127 mm 313 W/m 1,2 C 4,2 C 17,7 km/h (3 Bft) 98 %
04.03.2016 11:10 4,2 C 4,2 C 4,3 C 78 % 1001,4 hPa 0,0 l/m 12,9 km/h (3 Bft) SO 135 10 min 0,000 mm 292 W/m 0,7 C -0,7 C 22,5 km/h (4 Bft) 97 %
04.03.2016 11:20 4,3 C 4,2 C 4,3 C 80 % 1001,4 hPa 0,0 l/m 8,0 km/h (2 Bft) SO 135 10 min 0,000 mm 292 W/m 1,2 C 2,9 C 19,3 km/h (3 Bft) 98 %
04.03.2016 11:30 4,6 C 4,3 C 4,6 C 78 % 1001,4 hPa 0,0 l/m 4,8 km/h (1 Bft) SO 135 10 min 0,000 mm 302 W/m 1,1 C 4,6 C 16,1 km/h (3 Bft) 98 %
04.03.2016 11:40 4,5 C 4,5 C 4,6 C 77 % 1000,9 hPa 0,0 l/m 9,7 km/h (2 Bft) SO 135 10 min 0,000 mm 264 W/m 0,8 C 1,7 C 20,9 km/h (4 Bft) 97 %
04.03.2016 11:50 4,6 C 4,5 C 4,6 C 77 % 1000,6 hPa 0,0 l/m 6,4 km/h (2 Bft) O-SO 112 10 min 0,000 mm 243 W/m 0,9 C 4,6 C 14,5 km/h (3 Bft) 98 %
04.03.2016 12:00 4,9 C 4,6 C 4,9 C 75 % 1000,4 hPa 0,0 l/m 6,4 km/h (2 Bft) S-SO 157 10 min 0,127 mm 257 W/m 0,8 C 4,9 C 19,3 km/h (3 Bft) 98 %
04.03.2016 12:20 5,2 C 4,6 C 5,2 C 73 % 1000,3 hPa 0,0 l/m 9,2 km/h (2 Bft) S-SO 153 20 min 0,000 mm 313 W/m 0,8 C 2,9 C 22,5 km/h (4 Bft) 100 %
04.03.2016 12:30 5,3 C 5,2 C 5,3 C 74 % 1000,0 hPa 0,0 l/m 8,9 km/h (2 Bft) O-SO 115 10 min 0,000 mm 338 W/m 1,0 C 3,2 C 19,3 km/h (3 Bft) 100 %
04.03.2016 12:40 5,4 C 5,3 C 5,4 C 73 % 999,7 hPa 0,0 l/m 6,5 km/h (2 Bft) O-SO 111 10 min 0,000 mm 388 W/m 1,0 C 5,3 C 16,1 km/h (3 Bft) 100 %
04.03.2016 12:50 5,5 C 5,4 C 5,5 C 72 % 999,3 hPa 0,0 l/m 9,1 km/h (2 Bft) SO 136 10 min 0,000 mm 339 W/m 0,9 C 3,3 C 19,3 km/h (3 Bft) 100 %
04.03.2016 13:00 5,6 C 5,4 C 5,6 C 70 % 999,0 hPa 0,0 l/m 9,7 km/h (2 Bft) O-SO 107 10 min 0,152 mm 323 W/m 0,6 C 2,9 C 22,5 km/h (4 Bft) 100 %
04.03.2016 13:10 5,7 C 5,6 C 5,7 C 70 % 998,7 hPa 0,0 l/m 7,5 km/h (2 Bft) SO 136 10 min 0,000 mm 287 W/m 0,7 C 4,8 C 22,5 km/h (4 Bft) 100 %
04.03.2016 13:20 5,8 C 5,7 C 5,8 C 69 % 998,5 hPa 0,0 l/m 6,7 km/h (2 Bft) SO 124 10 min 0,000 mm 257 W/m 0,6 C 5,6 C 20,9 km/h (4 Bft) 100 %
04.03.2016 13:30 5,8 C 5,7 C 5,8 C 71 % 998,5 hPa 0,0 l/m 7,7 km/h (2 Bft) SO 144 10 min 0,000 mm 294 W/m 1,0 C 4,7 C 19,3 km/h (3 Bft) 100 %
04.03.2016 13:40 5,9 C 5,8 C 5,9 C 70 % 998,5 hPa 0,0 l/m 10,9 km/h (2 Bft) O-SO 120 10 min 0,000 mm 255 W/m 0,9 C 2,5 C 22,5 km/h (4 Bft) 100 %
04.03.2016 13:50 6,1 C 5,9 C 6,1 C 70 % 998,1 hPa 0,0 l/m 6,6 km/h (2 Bft) S-SO 168 10 min 0,000 mm 246 W/m 1,0 C 6,0 C 20,9 km/h (4 Bft) 100 %
04.03.2016 14:00 6,3 C 6,1 C 6,3 C 69 % 997,9 hPa 0,0 l/m 6,8 km/h (2 Bft) SO 144 10 min 0,127 mm 200 W/m 1,0 C 6,0 C 22,5 km/h (4 Bft) 100 %
04.03.2016 14:10 6,2 C 6,2 C 6,3 C 70 % 998,2 hPa 0,0 l/m 6,8 km/h (2 Bft) S-SO 165 0 min 0,000 mm 151 W/m 1,1 C 5,9 C 19,3 km/h (3 Bft) 99 %
04.03.2016 14:20 6,3 C 6,2 C 6,3 C 68 % 997,9 hPa 0,0 l/m 6,9 km/h (2 Bft) SO 130 10 min 0,000 mm 165 W/m 0,8 C 5,9 C 19,3 km/h (3 Bft) 100 %
04.03.2016 14:30 6,3 C 6,3 C 6,3 C 67 % 997,8 hPa 0,0 l/m 9,5 km/h (2 Bft) SO 129 10 min 0,000 mm 181 W/m 0,6 C 3,9 C 22,5 km/h (4 Bft) 100 %
04.03.2016 14:40 6,4 C 6,3 C 6,4 C 70 % 997,7 hPa 0,0 l/m 8,4 km/h (2 Bft) SO 143 0 min 0,000 mm 144 W/m 1,3 C 4,8 C 19,3 km/h (3 Bft) 100 %
04.03.2016 14:50 6,5 C 6,4 C 6,5 C 66 % 997,8 hPa 0,0 l/m 7,5 km/h (2 Bft) S-SO 168 0 min 0,000 mm 84 W/m 0,6 C 5,6 C 19,3 km/h (3 Bft) 100 %
04.03.2016 15:00 6,5 C 6,5 C 6,5 C 65 % 997,6 hPa 0,0 l/m 4,2 km/h (1 Bft) S 170 0 min 0,077 mm 74 W/m 0,4 C 6,5 C 19,3 km/h (3 Bft) 100 %
04.03.2016 15:10 6,6 C 6,5 C 6,6 C 63 % 997,5 hPa 0,0 l/m 7,9 km/h (2 Bft) S-SO 156 0 min 0,000 mm 81 W/m 0,1 C 5,4 C 17,7 km/h (3 Bft) 99 %
04.03.2016 15:20 6,6 C 6,6 C 6,6 C 66 % 997,5 hPa 0,0 l/m 3,8 km/h (1 Bft) S-SO 165 0 min 0,000 mm 56 W/m 0,7 C 6,6 C 14,5 km/h (3 Bft) 100 %
04.03.2016 15:30 6,3 C 6,3 C 6,6 C 66 % 997,7 hPa 0,0 l/m 12,8 km/h (3 Bft) S-SO 163 0 min 0,000 mm 51 W/m 0,4 C 1,8 C 33,8 km/h (5 Bft) 99 %
04.03.2016 15:40 5,6 C 5,6 C 6,3 C 72 % 997,8 hPa 0,0 l/m 18,9 km/h (3 Bft) O-SO 121 0 min 0,000 mm 33 W/m 1,0 C -2,0 C 41,8 km/h (6 Bft) 100 %
04.03.2016 15:50 4,7 C 4,7 C 5,6 C 80 % 998,2 hPa 0,0 l/m 14,8 km/h (3 Bft) S-SO 153 0 min 0,000 mm 25 W/m 1,6 C -1,2 C 32,2 km/h (5 Bft) 100 %
04.03.2016 16:00 4,0 C 4,0 C 4,7 C 84 % 998,1 hPa 0,4 l/m 13,5 km/h (3 Bft) S-SO 155 0 min 0,050 mm 32 W/m 1,5 C -1,3 C 30,6 km/h (5 Bft) 99 %
04.03.2016 16:10 3,7 C 3,7 C 4,0 C 87 % 998,0 hPa 0,0 l/m 8,9 km/h (2 Bft) S-SO 167 0 min 0,000 mm 32 W/m 1,7 C 1,5 C 19,3 km/h (3 Bft) 100 %
04.03.2016 16:20 3,6 C 3,6 C 3,7 C 88 % 997,8 hPa 0,2 l/m 8,6 km/h (2 Bft) S-SO 157 0 min 0,000 mm 30 W/m 1,8 C 1,6 C 22,5 km/h (4 Bft) 99 %
04.03.2016 16:30 3,5 C 3,5 C 3,6 C 89 % 997,6 hPa 0,2 l/m 10,4 km/h (2 Bft) SO 136 0 min 0,000 mm 28 W/m 1,9 C 0,1 C 22,5 km/h (4 Bft) 100 %
04.03.2016 16:40 3,4 C 3,4 C 3,5 C 90 % 997,4 hPa 0,0 l/m 8,2 km/h (2 Bft) S 170 0 min 0,000 mm 23 W/m 1,9 C 1,7 C 20,9 km/h (4 Bft) 99 %
04.03.2016 16:50 3,3 C 3,3 C 3,4 C 90 % 997,3 hPa 0,0 l/m 5,8 km/h (2 Bft) O-SO 107 0 min 0,000 mm 19 W/m 1,8 C 3,3 C 17,7 km/h (3 Bft) 100 %
04.03.2016 17:00 3,2 C 3,2 C 3,3 C 90 % 997,1 hPa 0,4 l/m 6,8 km/h (2 Bft) SO 133 0 min 0,026 mm 19 W/m 1,7 C 2,8 C 17,7 km/h (3 Bft) 100 %
04.03.2016 17:10 3,2 C 3,2 C 3,3 C 91 % 996,9 hPa 0,0 l/m 4,9 km/h (1 Bft) S-SO 152 0 min 0,000 mm 18 W/m 1,9 C 3,2 C 16,1 km/h (3 Bft) 91 %
04.03.2016 17:20 3,2 C 3,2 C 3,2 C 91 % 997,0 hPa 0,0 l/m 7,3 km/h (2 Bft) SO 140 0 min 0,000 mm 12 W/m 1,9 C 2,4 C 19,3 km/h (3 Bft) 100 %
04.03.2016 17:30 3,2 C 3,2 C 3,2 C 91 % 997,0 hPa 0,2 l/m 5,3 km/h (1 Bft) SO 146 0 min 0,000 mm 7 W/m 1,9 C 3,2 C 16,1 km/h (3 Bft) 100 %
04.03.2016 17:40 3,2 C 3,2 C 3,2 C 91 % 997,0 hPa 0,2 l/m 3,2 km/h (1 Bft) O-SO 121 0 min 0,000 mm 5 W/m 1,9 C 3,2 C 11,3 km/h (2 Bft) 100 %
04.03.2016 17:50 3,2 C 3,2 C 3,2 C 91 % 997,1 hPa 0,4 l/m 3,2 km/h (1 Bft) SO 137 0 min 0,000 mm 0 W/m 1,9 C 3,2 C 11,3 km/h (2 Bft) 99 %
04.03.2016 18:00 3,2 C 3,2 C 3,2 C 91 % 997,0 hPa 0,2 l/m 4,4 km/h (1 Bft) SO 141 0 min 0,000 mm 0 W/m 1,9 C 3,2 C 16,1 km/h (3 Bft) 98 %
04.03.2016 18:10 3,2 C 3,2 C 3,2 C 91 % 996,6 hPa 0,4 l/m 5,6 km/h (1 Bft) O-SO 112 0 min 0,000 mm 0 W/m 1,9 C 3,2 C 17,7 km/h (3 Bft) 97 %
04.03.2016 18:20 3,2 C 3,2 C 3,3 C 91 % 995,6 hPa 0,2 l/m 7,5 km/h (2 Bft) O 80 0 min 0,000 mm 0 W/m 1,9 C 2,2 C 22,5 km/h (4 Bft) 97 %
04.03.2016 18:30 3,3 C 3,2 C 3,3 C 91 % 996,0 hPa 0,0 l/m 9,2 km/h (2 Bft) O-SO 116 0 min 0,000 mm 0 W/m 2,0 C 0,8 C 22,5 km/h (4 Bft) 97 %
04.03.2016 18:40 3,3 C 3,3 C 3,3 C 91 % 996,2 hPa 0,0 l/m 9,2 km/h (2 Bft) SO 128 0 min 0,000 mm 0 W/m 2,0 C 0,8 C 22,5 km/h (4 Bft) 97 %
04.03.2016 18:50 3,3 C 3,3 C 3,3 C 91 % 996,1 hPa 0,2 l/m 7,6 km/h (2 Bft) SO 144 0 min 0,000 mm 0 W/m 2,0 C 2,2 C 22,5 km/h (4 Bft) 97 %
04.03.2016 19:00 3,4 C 3,3 C 3,4 C 91 % 996,2 hPa 0,0 l/m 6,5 km/h (2 Bft) O-SO 112 0 min 0,000 mm 0 W/m 2,1 C 3,3 C 19,3 km/h (3 Bft) 97 %
04.03.2016 19:10 3,4 C 3,4 C 3,4 C 91 % 996,1 hPa 0,0 l/m 7,5 km/h (2 Bft) SO 146 0 min 0,000 mm 0 W/m 2,1 C 2,4 C 19,3 km/h (3 Bft) 97 %
04.03.2016 19:20 3,5 C 3,4 C 3,5 C 91 % 996,1 hPa 0,2 l/m 5,3 km/h (1 Bft) O-SO 107 0 min 0,000 mm 0 W/m 2,2 C 3,5 C 14,5 km/h (3 Bft) 97 %
04.03.2016 19:30 3,5 C 3,5 C 3,6 C 91 % 996,0 hPa 0,0 l/m 3,0 km/h (1 Bft) SO 138 0 min 0,000 mm 0 W/m 2,2 C 3,5 C 9,7 km/h (2 Bft) 97 %
04.03.2016 19:40 3,6 C 3,5 C 3,6 C 91 % 995,8 hPa 0,0 l/m 3,7 km/h (1 Bft) O-SO 122 0 min 0,000 mm 0 W/m 2,3 C 3,6 C 11,3 km/h (2 Bft) 98 %
04.03.2016 19:50 3,7 C 3,6 C 3,7 C 91 % 995,9 hPa 0,0 l/m 3,8 km/h (1 Bft) SO 124 0 min 0,000 mm 0 W/m 2,4 C 3,7 C 14,5 km/h (3 Bft) 98 %
04.03.2016 20:00 3,8 C 3,7 C 3,8 C 91 % 995,9 hPa 0,0 l/m 2,5 km/h (1 Bft) SO 128 0 min 0,000 mm 0 W/m 2,5 C 3,8 C 9,7 km/h (2 Bft) 97 %
04.03.2016 20:10 3,8 C 3,8 C 3,8 C 91 % 995,8 hPa 0,0 l/m 3,9 km/h (1 Bft) SO 143 0 min 0,000 mm 0 W/m 2,5 C 3,8 C 11,3 km/h (2 Bft) 97 %
04.03.2016 20:20 3,9 C 3,8 C 3,9 C 92 % 995,8 hPa 0,0 l/m 2,1 km/h (1 Bft) SO 136 0 min 0,000 mm 0 W/m 2,7 C 3,9 C 11,3 km/h (2 Bft) 98 %
04.03.2016 20:30 4,0 C 3,9 C 4,0 C 92 % 995,8 hPa 0,0 l/m 1,6 km/h (1 Bft) S-SO 162 0 min 0,000 mm 0 W/m 2,8 C 4,0 C 8,0 km/h (2 Bft) 97 %
04.03.2016 20:40 4,0 C 4,0 C 4,0 C 92 % 995,8 hPa 0,0 l/m 0,2 km/h (0 Bft) S-SO 159 0 min 0,000 mm 0 W/m 2,8 C 4,0 C 4,8 km/h (1 Bft) 90 %
04.03.2016 20:50 3,9 C 3,9 C 4,0 C 92 % 995,8 hPa 0,0 l/m 0,0 km/h (0 Bft) S-SO 159 0 min 0,000 mm 0 W/m 2,7 C 3,9 C 0,0 km/h (0 Bft) 97 %
04.03.2016 21:00 3,9 C 3,8 C 3,9 C 92 % 995,7 hPa 0,0 l/m 0,0 km/h (0 Bft) S-SO 159 0 min 0,000 mm 0 W/m 2,7 C 3,9 C 0,0 km/h (0 Bft) 98 %
04.03.2016 21:10 3,8 C 3,8 C 3,9 C 92 % 995,6 hPa 0,0 l/m 0,0 km/h (0 Bft) N 0 0 min 0,000 mm 0 W/m 2,6 C 3,8 C 0,0 km/h (0 Bft) 99 %
04.03.2016 21:20 3,9 C 3,8 C 3,9 C 91 % 995,5 hPa 0,0 l/m 1,6 km/h (1 Bft) SO 135 0 min 0,000 mm 0 W/m 2,6 C 3,9 C 8,0 km/h (2 Bft) 100 %
04.03.2016 21:30 4,1 C 3,9 C 4,1 C 91 % 995,7 hPa 0,0 l/m 1,6 km/h (1 Bft) SO 135 0 min 0,000 mm 0 W/m 2,8 C 4,1 C 8,0 km/h (2 Bft) 99 %
04.03.2016 21:40 4,1 C 4,1 C 4,1 C 91 % 995,7 hPa 0,0 l/m 0,0 km/h (0 Bft) S-SO 157 0 min 0,000 mm 0 W/m 2,8 C 4,1 C 1,6 km/h (1 Bft) 99 %
04.03.2016 21:50 4,1 C 4,1 C 4,1 C 91 % 995,6 hPa 0,0 l/m 0,0 km/h (0 Bft) N 0 0 min 0,000 mm 0 W/m 2,8 C 4,1 C 0,0 km/h (0 Bft) 100 %
04.03.2016 22:00 4,0 C 4,0 C 4,1 C 91 % 995,6 hPa 0,0 l/m 0,0 km/h (0 Bft) N 0 0 min 0,000 mm 0 W/m 2,7 C 4,0 C 0,0 km/h (0 Bft) 100 %
04.03.2016 22:10 4,0 C 4,0 C 4,1 C 91 % 995,5 hPa 0,2 l/m 0,0 km/h (0 Bft) SO 135 0 min 0,000 mm 0 W/m 2,7 C 4,0 C 1,6 km/h (1 Bft) 100 %
04.03.2016 22:20 4,1 C 4,0 C 4,1 C 91 % 995,5 hPa 0,2 l/m 1,6 km/h (1 Bft) S-SO 157 0 min 0,000 mm 0 W/m 2,8 C 4,1 C 8,0 km/h (2 Bft) 100 %
04.03.2016 22:30 4,1 C 4,1 C 4,1 C 91 % 995,7 hPa 0,2 l/m 1,6 km/h (1 Bft) S-SO 157 0 min 0,000 mm 0 W/m 2,8 C 4,1 C 9,7 km/h (2 Bft) 94 %
04.03.2016 22:40 4,1 C 4,1 C 4,1 C 91 % 995,7 hPa 0,6 l/m 3,2 km/h (1 Bft) S-SO 157 0 min 0,000 mm 0 W/m 2,8 C 4,1 C 9,7 km/h (2 Bft) 96 %
04.03.2016 22:50 4,2 C 4,1 C 4,2 C 91 % 995,6 hPa 0,2 l/m 1,6 km/h (1 Bft) S-SO 157 0 min 0,000 mm 0 W/m 2,9 C 4,2 C 6,4 km/h (2 Bft) 100 %
04.03.2016 23:00 4,2 C 4,2 C 4,2 C 91 % 995,5 hPa 0,4 l/m 3,2 km/h (1 Bft) S-SO 157 0 min 0,000 mm 0 W/m 2,9 C 4,2 C 9,7 km/h (2 Bft) 100 %
04.03.2016 23:10 4,2 C 4,2 C 4,2 C 91 % 995,4 hPa 0,2 l/m 4,8 km/h (1 Bft) S-SO 157 0 min 0,000 mm 0 W/m 2,9 C 4,2 C 11,3 km/h (2 Bft) 100 %
04.03.2016 23:20 4,2 C 4,2 C 4,2 C 91 % 995,3 hPa 0,2 l/m 3,2 km/h (1 Bft) S-SO 157 0 min 0,000 mm 0 W/m 2,9 C 4,2 C 11,3 km/h (2 Bft) 100 %
04.03.2016 23:30 4,2 C 4,2 C 4,2 C 91 % 995,3 hPa 0,0 l/m 3,2 km/h (1 Bft) SO 135 0 min 0,000 mm 0 W/m 2,9 C 4,2 C 9,7 km/h (2 Bft) 100 %
04.03.2016 23:40 4,2 C 4,2 C 4,2 C 91 % 995,1 hPa 0,2 l/m 3,2 km/h (1 Bft) S-SO 157 0 min 0,000 mm 0 W/m 2,9 C 4,2 C 12,9 km/h (3 Bft) 100 %
04.03.2016 23:50 4,2 C 4,2 C 4,3 C 91 % 995,1 hPa 0,0 l/m 3,2 km/h (1 Bft) S-SO 157 0 min 0,000 mm 0 W/m 2,9 C 4,2 C 9,7 km/h (2 Bft) 100 %
_ Min-Zeit 07:50 07:50 08:00 15:10 23:40 - 00:00 - - - - - 07:50 15:40 04:00 04:20
Minimum _ -0,4 C -0,4 C -0,2 C 63 % 995,1 hPa - 0,0 km/h (0 Bft) - - - - - -1,5 C -2,0 C 0,0 km/h (0 Bft) 89 %
_ Max-Zeit 15:10 15:20 15:10 05:40 02:10 22:40 15:40 - - 12:20 13:00 12:40 22:50 15:20 15:40 12:20
Maximum _ 6,6 C 6,6 C 6,6 C 98 % 1007,8 hPa 0,6 l/m 18,9 km/h
O-SO (3 Bft)
- - 20 min 0,152 mm 388 W/m 2,9 C 6,6 C 41,8 km/h
S (6 Bft)
100 %
Durchschnitt _ 3,1 C 3,0 C 3,1 C 87 % 1001,2 hPa #5,6 l/m 4,2 km/h (1 Bft) SO - #6:00 h #0,813 mm 166 W/m 1,1 C 2,5 C 12,0 km/h (2 Bft) 98 %
PRIVATE WETTERSTATION BILLIGHEIM-ALLFELD - www.neckar-odenwald-wetter.de - Holger Sonntag